Вернуться в каталог

ONEWEB-0144

АктивенСвязьPO
NORAD 47290·PAYLOAD·🇬🇧 United Kingdom

Запущен Dec 18, 2020 с Vostochny Cosmodrome

Loading…

Ближайшие Пролёты (ближайшие 24 часа)

TLE

СвежийSource: CelesTrak SupGP

Эпоха: Sep 14, 2026, 14:02 UTC

1 47290C 20100AJ  26257.58525880  .00002463  00000+0  68546-2 0  2570
2 47290  87.9000 332.9009 0001535  95.4588   7.1739 13.12443595    12

Отслеживайте ONEWEB-0144 в реальном времени с AllMySat

Download on the App Store